Hatteras, NC

1:13 PM EDT on July 27, 2017 (GMT -0400)
Mitchell

Weather History for KHSE - February, 2012

Change the Weather History Date:

Saturday, February 11, 2012

  Actual Average Record
Temperature  
Mean Temperature 46 °F 46 °F  
Max Temperature 59 °F 53 °F 70 °F (1932)
Min Temperature 33 °F 40 °F 21 °F (1989)
Degree Days  
Heating Degree Days 19 19  
Month to date heating degree days 159 209  
Since 1 July heating degree days 1170 1622  
Cooling Degree Days 0 0  
Month to date cooling degree days 0 0  
Year to date cooling degree days 0 0  
Moisture  
Dew Point 43 °F    
Average Humidity 73    
Maximum Humidity 93    
Minimum Humidity 52    
Precipitation  
Precipitation 0.34 in 0.14 in 1.88 in (1925)
Month to date precipitation 1.73 1.61  
Year to date precipitation 6.76 6.85  
Snow  
Snow T in - - ()
Month to date snowfall T  
Since 1 July snowfall T  
Snow Depth 0.00 in    
Sea Level Pressure  
Sea Level Pressure 29.73 in    
Wind  
Wind Speed 11 mph (NNW)    
Max Wind Speed 26 mph    
Max Gust Speed 39 mph    
Visibility 7 miles    
Events Rain    
T = Trace of Precipitation, MM = Missing Value Source: NWS Daily Summary

Daily Weather History Graph

Daily Weather History Graph

Search for Another Location

Airport or City:

Trip Planner

Search our weather history database for the weather conditions in past years. The results will help you decide how hot, cold, wet, or windy it might be!

Date:

Astronomy

Feb. 11, 2012 Rise Set
Actual Time 6:53 AM EST 5:40 PM EST
Civil Twilight 6:27 AM EST 6:06 PM EST
Nautical Twilight 5:57 AM EST 6:36 PM EST
Astronomical Twilight 5:27 AM EST 7:06 PM EST
Moon 10:11 PM EST (2/11) 8:46 AM EST (2/11)
Length of Visible Light 11h 39m
Length of Day
10h 47m
Waning Gibbous, 82% of the Moon is Illuminated
Feb 11
Waning Gibbous
Feb 14
Last Quarter
Feb 21
New
Feb 29
First Quarter
Mar 8
Full

Hourly Weather History & Observations

Time (EST) Temp. Windchill Dew Point Humidity Pressure Visibility Wind Dir Wind Speed Gust Speed Precip Events Conditions
12:08 AM 48.2 °F - 46.4 °F 93% 29.89 in 5.0 mi NNE 10.4 mph - 0.01 in Rain Light Rain
12:27 AM 48.2 °F - 46.4 °F 93% 29.88 in 2.5 mi NNE 11.5 mph 17.3 mph 0.07 in Rain Heavy Rain
12:34 AM 48.2 °F - 46.4 °F 93% 29.87 in 3.0 mi NE 9.2 mph - 0.11 in Rain Heavy Rain
12:51 AM 48.9 °F - 46.9 °F 93% 29.87 in 4.0 mi NNE 6.9 mph - 0.14 in Rain Rain
1:24 AM 48.2 °F - 46.4 °F 93% 29.83 in 2.5 mi ENE 6.9 mph - 0.13 in Rain Heavy Rain
1:35 AM 50.0 °F - 48.2 °F 94% 29.82 in 4.0 mi ENE 4.6 mph - 0.15 in Rain Light Rain
1:51 AM 50.0 °F - 48.0 °F 93% 29.81 in 4.0 mi East 6.9 mph - 0.15 in Rain Light Rain
2:37 AM 51.8 °F - 50.0 °F 94% 29.78 in 2.5 mi ESE 3.5 mph - 0.01 in Rain Light Rain
2:49 AM 55.4 °F - 53.6 °F 94% 29.76 in 4.0 mi SSW 5.8 mph - 0.01 in Rain Light Rain
2:51 AM 55.9 °F - 54.0 °F 93% 29.76 in 5.0 mi SSW 8.1 mph - 0.01 in Rain Light Rain
3:29 AM 55.4 °F - 51.8 °F 88% 29.73 in 7.0 mi NW 3.5 mph - 0.00 in   Overcast
3:51 AM 52.0 °F - 48.9 °F 89% 29.72 in 5.0 mi NNE 5.8 mph - 0.02 in Rain Light Rain
4:07 AM 51.8 °F - 46.4 °F 82% 29.72 in 5.0 mi Variable 6.9 mph 21.9 mph 0.00 in   Overcast
4:16 AM 50.0 °F - 46.4 °F 87% 29.73 in 4.0 mi North 8.1 mph - 0.00 in   Overcast
4:26 AM 50.0 °F - 46.4 °F 87% 29.73 in 5.0 mi Variable 6.9 mph - 0.00 in   Overcast
4:36 AM 50.0 °F - 46.4 °F 87% 29.73 in 6.0 mi Variable 6.9 mph - 0.00 in   Overcast
4:49 AM 50.0 °F - 46.4 °F 87% 29.73 in 7.0 mi North 9.2 mph - 0.00 in   Overcast
4:51 AM 50.0 °F - 46.9 °F 89% 29.73 in 7.0 mi North 8.1 mph - 0.00 in   Overcast
5:51 AM 51.1 °F - 48.0 °F 89% 29.71 in 9.0 mi Variable 4.6 mph - 0.00 in Rain Light Rain
6:02 AM 51.8 °F - 48.2 °F 88% 29.71 in 9.0 mi Calm Calm - 0.00 in   Overcast
6:51 AM 50.0 °F - 46.9 °F 89% 29.71 in 5.0 mi Variable 4.6 mph - 0.01 in Rain Light Rain
7:38 AM 48.2 °F - 46.4 °F 93% 29.71 in 5.0 mi NNW 9.2 mph 17.3 mph 0.01 in   Overcast
7:51 AM 48.0 °F - 45.0 °F 89% 29.72 in 6.0 mi NNW 8.1 mph - 0.01 in   Overcast
8:51 AM 48.0 °F - 44.1 °F 86% 29.70 in 7.0 mi Variable 5.8 mph - N/A   Overcast
9:51 AM 51.1 °F - 44.1 °F 77% 29.70 in 8.0 mi NNW 8.1 mph 17.3 mph N/A   Partly Cloudy
10:51 AM 51.1 °F - 44.1 °F 77% 29.69 in 7.0 mi NNW 10.4 mph - N/A   Mostly Cloudy
11:51 AM 52.0 °F - 42.1 °F 69% 29.65 in 7.0 mi NW 8.1 mph - N/A   Scattered Clouds
12:51 PM 51.1 °F - 42.1 °F 71% 29.64 in 7.0 mi WNW 6.9 mph - N/A   Overcast
1:36 PM 51.8 °F - 42.8 °F 71% 29.62 in 7.0 mi WNW 6.9 mph - N/A   Overcast
1:51 PM 51.1 °F - 42.1 °F 71% 29.62 in 7.0 mi NW 6.9 mph - N/A   Overcast
2:39 PM 51.8 °F - 39.2 °F 62% 29.61 in 10.0 mi NW 11.5 mph 19.6 mph N/A   Overcast
2:51 PM 51.1 °F - 39.9 °F 66% 29.62 in 10.0 mi NW 12.7 mph 20.7 mph N/A   Overcast
3:48 PM 48.2 °F - 39.2 °F 71% 29.64 in 10.0 mi NW 11.5 mph 21.9 mph N/A   Overcast
3:51 PM 48.9 °F - 39.0 °F 69% 29.64 in 10.0 mi NW 12.7 mph 21.9 mph N/A   Overcast
4:41 PM 46.4 °F 42.4 °F 39.2 °F 76% 29.66 in 10.0 mi NNW 8.1 mph 20.7 mph 0.00 in Rain Light Rain
4:51 PM 46.9 °F - 39.0 °F 74% 29.66 in 10.0 mi NNW 11.5 mph 21.9 mph 0.00 in   Overcast
5:51 PM 46.0 °F 41.4 °F 37.0 °F 71% 29.67 in 10.0 mi NNW 9.2 mph 19.6 mph 0.00 in   Overcast
6:51 PM 45.0 °F 40.1 °F 35.1 °F 68% 29.68 in 10.0 mi NW 9.2 mph 18.4 mph 0.00 in   Mostly Cloudy
7:51 PM 46.0 °F 39.9 °F 35.1 °F 66% 29.71 in 10.0 mi NW 13.8 mph 24.2 mph N/A   Overcast
8:51 PM 42.1 °F 32.6 °F 27.0 °F 55% 29.74 in 10.0 mi NW 23.0 mph 36.8 mph 0.00 in Rain Light Rain
9:51 PM 39.0 °F 29.3 °F 21.9 °F 50% 29.77 in 10.0 mi NW 19.6 mph 32.2 mph 0.00 in   Overcast
10:51 PM 36.0 °F 24.7 °F 19.9 °F 52% 29.80 in 10.0 mi NW 21.9 mph 33.4 mph N/A   Clear
11:51 PM 34.0 °F 22.4 °F 17.1 °F 50% 29.82 in 10.0 mi NW 20.7 mph 38.0 mph N/A   Clear